Location: Emory University Observatory
(33.7903°N, 84.3267°W)
Time: 02:11:15
(UTC-04:00)

OTV 5 (USA 277) - Pass Details

Date: 07 October 2017
Orbit: 404 x 417 km, 43.0° (Epoch: 07 September)

Event Time Altitude Azimuth Distance (km) Brightness Sun altitude
Rises 20:36:02 0° 228° (SW) 2,341 ? -18.0°
Reaches altitude 10° 20:38:09 10° 224° (SW) 1,481 ? -18.5°
Enters shadow 20:41:10 51° 165° (SSE) 530 ? -19.1°
